Flag for Sierra Leone Weather past 2 weeks in Bo, Sierra Leone

Now
77 °F

Thunderstorms. Passing clouds.


Feels Like: 78 °F
Forecast: N/A
Wind: 12 mph from Northwest

Location: Lungi

Current Time: Aug 20, 2014 at 10:34:59 PM

Latest Report: Aug 20, 2014 at 10:00 PM


Visibility: 4 mi

Pressure: 29.89 "Hg

Humidity: 89%

Dew point: 73 °F

Location of BoLocation

Historic Weather in Bo — Graph

°F

Bo temperature yesterday

Maximum temperature yesterday: 82 °F (at 4:00 PM)
Minimum temperature yesterday: 73 °F (at 6:00 AM)
Average temperature yesterday: 77 °F

Past Weeks' High & Low Weather Summary

 TemperatureHumidityPressure
High86 °F (Aug 20, 12:00 PM)100% (Aug 6, 9:00 AM)30.01 "Hg (Aug 6, 9:00 AM)
Low72 °F (Aug 14, 12:00 PM)62% (Aug 20, 4:00 PM)29.83 "Hg (Aug 8, 4:30 PM)
Average77 °F91%29.92 "Hg
* Reported Aug 6 1:30 AM — Aug 20 9:30 PM, Bo, Weather by CustomWeather, © 2014

Note: Actual official high and low records may vary slightly from our data, if they occured in-between our weather recording intervals... More about our weather records

Advertising

Bo weather history for previous 24 hours

 ConditionsComfort  
Time TempWeatherWind HumidityBarometerVisibility
9:30 PM
Aug 20
77 °FThunderstorms. Passing clouds.13 mph89%29.92 "Hg4 mi
8:00 PM73 °FPassing clouds.13 mph100%29.92 "Hg2 mi
7:30 PM79 °FPassing clouds.13 mph89%29.92 "Hg2 mi
7:00 PM79 °FPartly sunny.12 mph89%29.92 "Hg2 mi
6:30 PM79 °FThunderstorms. Partly sunny.5 mph84%29.89 "HgN/A
6:00 PM79 °FPartly sunny.7 mph84%29.86 "HgN/A
5:30 PM82 °FPartly sunny.9 mph70%29.86 "HgN/A
5:00 PM82 °FScattered clouds.6 mph70%29.86 "HgN/A
4:30 PM86 °FScattered clouds.9 mph62%29.86 "HgN/A
4:00 PM86 °FScattered clouds.7 mph62%29.86 "HgN/A
3:00 PM84 °FScattered clouds.12 mph70%29.86 "HgN/A
2:00 PM84 °FScattered clouds.9 mph70%29.89 "HgN/A
1:00 PM84 °FScattered clouds.10 mph74%29.95 "HgN/A
12:00 PM86 °FScattered clouds.12 mph66%29.95 "HgN/A
11:00 AM82 °FPartly sunny.7 mph79%29.95 "HgN/A
10:00 AM81 °FPartly sunny.6 mph84%29.95 "HgN/A
9:30 AM81 °FPartly sunny.5 mph84%29.95 "HgN/A
9:00 AM81 °FPartly sunny.7 mph84%29.95 "HgN/A
2:00 AM77 °FPassing clouds.7 mph83%29.95 "HgN/A
Weather by CustomWeather, © 2014

See weather overviewHow to use our weather pages